This demonstration page uses our WeatherBlox Daily Observations layout. Learn more.

Left ArrowRight Arrow

Hourly Observations for March 18, 2016

Temp ( °F °C ) Dew Point ( °F °C ) Humidity (%) Winds ( mph kmh ) Pressure ( in mb ) Visibility ( mi km ) Precip ( " mm )
12:53 am 00:53 Clear 38 3.3 31 -0.6 76 76 N N/A 30.00 1016 10 16 N/A
1:53 am 01:53 Clear 36 2.2 31 -0.6 82 82 N N/A 30.00 1016 10 16 N/A
2:53 am 02:53 Clear 35 1.7 30 -1.1 82 82 N N/A 30.01 1016 10 16 N/A
3:53 am 03:53 Clear 38 3.3 35 1.7 89 89 N N/A 30.00 1016 10 16 N/A
4:53 am 04:53 Clear 36 2.2 34 1.1 93 93 W 3 6 29.99 1016 10 16 N/A
5:53 am 05:53 Clear 33 0.6 31 -0.6 92 92 N N/A 29.99 1016 10 16 N/A
6:53 am 06:53 Clear 33 0.6 30 -1.1 89 89 N N/A 30.01 1016 10 16 N/A
7:53 am 07:53 Sunny 35 1.7 33 0.6 93 93 N N/A 30.03 1017 10 16 N/A
8:53 am 08:53 Sunny 40 4.4 35 1.7 83 83 N N/A 30.04 1017 10 16 N/A
9:53 am 09:53 Sunny 46 7.8 34 1.1 63 63 WSW 5 7 30.06 1018 10 16 N/A
10:53 am 10:53 Sunny 51 10.6 33 0.6 50 50 NW 10 17 30.08 1019 10 16 N/A
11:53 am 11:53 Sunny 53 11.7 30 -1.1 41 41 NW 8 13 30.09 1019 10 16 N/A
12:53 pm 12:53 Sunny 56 13.3 25 -3.9 30 30 NW 12 19 30.10 1019 10 16 N/A
1:53 pm 13:53 Sunny 57 13.9 24 -4.4 28 28 NW 12 19 30.09 1019 10 16 N/A
2:53 pm 14:53 Sunny 58 14.4 22 -5.6 25 25 W 14 22 30.07 1018 10 16 N/A
3:53 pm 15:53 Sunny 58 14.4 19 -7.2 22 22 W 14 22 30.05 1018 10 16 N/A
4:53 pm 16:53 Sunny 59 15 20 -6.7 22 22 W 12 19 30.04 1017 10 16 N/A
5:53 pm 17:53 Sunny 58 14.4 17 -8.3 20 20 W 9 15 30.04 1017 10 16 N/A
6:53 pm 18:53 Sunny 53 11.7 19 -7.2 26 26 NW 10 17 30.04 1017 10 16 N/A
7:53 pm 19:53 Clear 49 9.4 21 -6.1 33 33 NW 6 9 30.05 1018 10 16 N/A
8:53 pm 20:53 Clear 49 9.4 22 -5.6 35 35 NNW 7 11 30.06 1018 10 16 N/A
9:53 pm 21:53 Cloudy 49 9.4 26 -3.3 41 41 N 7 11 30.07 1018 10 16 N/A
10:53 pm 22:53 Partly Cloudy 47 8.3 27 -2.8 46 46 N 5 7 30.08 1019 10 16 N/A

Powered by AerisWeather